Weather History for Siemreap, Cambodia

Change the Weather History Date:

Sunday, October 9, 2011

  Actual Average Record
Temperature  
Mean Temperature 82 °F -  
Max Temperature 86 °F - - ()
Min Temperature 77 °F - - ()
Cooling Degree Days 16    
Growing Degree Days 32 (Base 50)    
Moisture  
Dew Point 75 °F    
Average Humidity 84    
Maximum Humidity 94    
Minimum Humidity 70    
Precipitation  
Precipitation 0.00 in - - ()
Sea Level Pressure  
Sea Level Pressure 29.78 in    
Wind  
Wind Speed 4 mph ()    
Max Wind Speed 10 mph    
Max Gust Speed -    
Visibility 6.0 miles    
Events Rain    
T = Trace of Precipitation, MM = Missing Value Source: Averaged Metar Reports

Daily Weather History Graph

Daily Weather History Graph

Search for Another Location

Airport:

Trip Planner

Search our weather history database for the weather conditions in past years. The results will help you decide how hot, cold, wet, or windy it might be!

Date:

Astronomy

Oct. 09, 2011 Rise Set
Actual Time 5:54 AM ICT 5:49 PM ICT
Civil Twilight 5:33 AM ICT 6:10 PM ICT
Nautical Twilight 5:08 AM ICT 6:35 PM ICT
Astronomical Twilight 4:43 AM ICT 7:00 PM ICT
Moon 3:55 PM ICT (10/9) 3:30 AM ICT (10/9)
Length of Visible Light 12h 37m
Length of Day
11h 55m
Waxing Gibbous, 93% of the Moon is Illuminated
Oct 9
Waxing Gibbous
Oct 12
Full
Oct 20
Last Quarter
Oct 27
New
Nov 2
First Quarter

Hourly Weather History & Observations

Time (ICT) Temp. Heat Index Dew Point Humidity Pressure Visibility Wind Dir Wind Speed Gust Speed Precip Events Conditions
7:00 AM 78.8 °F - 75.2 °F 89% 29.80 in 6.2 mi Calm Calm - N/A   Mostly Cloudy
7:30 AM 78.8 °F - 75.2 °F 89% 29.80 in 6.2 mi Calm Calm - N/A   Mostly Cloudy
8:00 AM 80.6 °F 85.4 °F 73.4 °F 79% 29.83 in 6.2 mi WNW 4.6 mph - N/A   Scattered Clouds
8:30 AM 82.4 °F 88.2 °F 73.4 °F 74% 29.83 in 6.2 mi WSW 4.6 mph - N/A   Scattered Clouds
9:00 AM 82.4 °F 89.5 °F 75.2 °F 79% 29.83 in 6.2 mi West 5.8 mph - N/A   Scattered Clouds
9:30 AM 82.4 °F 89.5 °F 75.2 °F 79% - 5.6 mi WNW 5.8 mph - N/A   Mostly Cloudy
10:00 AM 80.6 °F 86.2 °F 75.2 °F 84% 29.83 in 5.6 mi West 6.9 mph - N/A Rain Rain
10:30 AM 82.4 °F 90.9 °F 77.0 °F 84% 29.83 in 6.2 mi WSW 4.6 mph - N/A   Mostly Cloudy
11:00 AM 84.2 °F 94.1 °F 77.0 °F 79% 29.83 in 6.2 mi West 9.2 mph - N/A   Mostly Cloudy
12:00 PM 86.0 °F 95.1 °F 75.2 °F 70% 29.77 in 6.2 mi West 8.1 mph - N/A   Scattered Clouds
12:30 PM 86.0 °F 95.1 °F 75.2 °F 70% 29.77 in 6.2 mi WNW 5.8 mph - N/A   Mostly Cloudy
1:00 PM 84.2 °F 92.3 °F 75.2 °F 74% 29.74 in 6.2 mi WSW 6.9 mph - N/A   Mostly Cloudy
1:30 PM 82.4 °F 89.5 °F 75.2 °F 79% 29.71 in 6.2 mi West 6.9 mph - N/A   Mostly Cloudy
2:00 PM 82.4 °F 89.5 °F 75.2 °F 79% 29.71 in 6.2 mi WSW 6.9 mph - N/A   Mostly Cloudy
2:30 PM 82.4 °F 89.5 °F 75.2 °F 79% 29.71 in 6.2 mi West 6.9 mph - N/A   Mostly Cloudy
3:00 PM 84.2 °F 92.3 °F 75.2 °F 74% 29.71 in 6.2 mi WNW 5.8 mph - N/A   Mostly Cloudy
3:30 PM 82.4 °F 89.5 °F 75.2 °F 79% 29.71 in 6.2 mi WNW 3.5 mph - N/A   Mostly Cloudy
4:00 PM 80.6 °F 84.6 °F 71.6 °F 74% 29.71 in 5.6 mi North 10.4 mph - N/A   Mostly Cloudy
4:30 PM 77.0 °F - 71.6 °F 83% 29.74 in 6.2 mi NNE 6.9 mph - N/A   Mostly Cloudy
5:00 PM 77.0 °F - 71.6 °F 83% 29.74 in 6.2 mi NE 4.6 mph - N/A   Mostly Cloudy
5:30 PM 77.0 °F - 73.4 °F 89% 29.74 in 5.6 mi East 6.9 mph - N/A Rain Light Rain
6:00 PM 77.0 °F - 73.4 °F 89% 29.74 in 6.2 mi East 5.8 mph - N/A   Mostly Cloudy
6:30 PM 77.0 °F - 73.4 °F 89% 29.77 in 5.6 mi East 4.6 mph - N/A Rain Light Rain
7:00 PM 77.0 °F - 73.4 °F 89% 29.77 in 5.6 mi East 4.6 mph - N/A   Mostly Cloudy
7:30 PM 77.0 °F - 75.2 °F 94% 29.77 in 5.6 mi ENE 4.6 mph - N/A   Mostly Cloudy
8:00 PM 77.0 °F - 75.2 °F 94% 29.80 in 5.6 mi NE 4.6 mph - N/A   Mostly Cloudy
8:30 PM 77.0 °F - 75.2 °F 94% 29.80 in 5.6 mi NE 4.6 mph - N/A   Scattered Clouds
9:00 PM 77.0 °F - 75.2 °F 94% 29.80 in 6.2 mi NE 4.6 mph - N/A   Scattered Clouds
9:30 PM 78.8 °F - 75.2 °F 89% 29.83 in 6.2 mi East 4.6 mph - N/A   Scattered Clouds
10:00 PM 77.0 °F - 75.2 °F 94% 29.83 in 5.6 mi East 4.6 mph - N/A   Scattered Clouds
10:30 PM 77.0 °F - 75.2 °F 94% 29.80 in 5.6 mi Variable 2.3 mph - N/A   Scattered Clouds
11:00 PM 77.0 °F - 75.2 °F 94% 29.83 in 5.6 mi NNE 3.5 mph - N/A   Scattered Clouds